Location: Misciano
(43.5000°N, 11.9500°E)
Time: 12:03:40
(UTC+00:00)

Daily predictions for brighter satellites

Satellite Brightness Start Highest point End
(mag) Time Altitude Azimuth Time Altitude Azimuth Time Altitude Azimuth
BREEZE-M (TANK) 3.9 18:28:45 10° WSW 18:32:14 74° NNW 18:45:04 10° ENE
SWAS 4.5 18:39:23 10° SSW 18:43:37 61° ESE 18:47:53 10° NNE
USA 238 DEB 4.2 18:38:54 10° S 18:44:39 33° ESE 18:50:34 10° NE
USA 238 4.3 18:39:02 10° S 18:44:46 33° ESE 18:50:40 10° NE
Cosmos 220 Rocket 3.9 18:40:36 10° NNW 18:44:50 74° ENE 18:49:04 10° SSE
Cosmos 1805 Rocket 3.7 18:41:52 10° S 18:46:13 57° E 18:50:35 10° NNE
SL-16 R/B 4.2 18:44:28 10° NNE 18:47:15 14° NE 18:50:02 10° ENE
ARGOS 3.4 18:43:30 10° S 18:48:54 78° WSW 18:54:17 10° NNW
Resurs 1-3 4.5 18:45:02 10° SE 18:48:56 33° ENE 18:52:52 10° N
BREEZE-M DEB (TANK) 2.5 18:47:41 10° W 18:49:56 50° NNW 18:53:45 10° ENE
MOS 1 4.3 18:45:44 10° SSE 18:51:20 71° ENE 18:56:59 10° N
Cosmos 972 Rocket 4.4 18:46:30 10° NNW 18:51:23 64° WSW 18:56:15 10° S
Ariane Rocket 3.0 18:46:34 10° SSE 18:51:38 83° ENE 18:56:42 10° NNW
CZ-2C R/B 2.7 18:46:50 10° NNE 18:51:56 55° E 18:57:05 10° S
CENTAUR R/B 3.5 18:51:39 10° SSE 18:55:54 21° ESE 19:00:36 10° ENE
Cosmos 2082 Rocket 2.4 18:50:27 10° S 18:55:55 50° ESE 19:01:23 10° NE
COSMOS 2406 3.7 18:50:25 10° SSW 18:56:09 70° WNW 19:01:53 10° NNE
Cosmos 407 Rocket 3.5 18:51:21 10° S 18:56:38 71° ESE 19:01:54 10° NNE
Cosmos 2369 3.8 18:52:43 10° NNW 18:58:28 69° ENE 19:04:09 10° SSE
Cosmos 1190 Rocket 4.1 18:53:37 10° S 18:58:47 60° ESE 19:04:01 10° NNE
IRIDIUM 106 4.3 18:55:11 10° S 19:00:20 67° E 19:05:31 10° N
Lacrosse 5 3.3 18:56:54 10° NW 19:01:17 28° NNE 19:05:40 10° E
Cosmos 1633 Rocket 3.7 19:00:04 10° SSE 19:04:05 35° E 19:08:05 10° NNE
Cosmos 2278 4.0 18:59:58 10° NNW 19:05:34 53° ENE 19:11:00 11° SE
Cosmos 2322 Rocket 4.2 19:02:57 10° N 19:06:14 15° NE 19:09:31 10° E
Cosmos 1140 Rocket 3.5 19:03:10 10° S 19:08:22 70° ESE 19:13:36 10° NNE
MOS 1 Rocket 4.4 19:03:58 10° N 19:09:18 58° WNW 19:14:26 10° SSW
Cosmos 1023 Rocket 4.5 19:05:27 10° SSW 19:10:42 75° ESE 19:15:59 10° NNE
MetOp-A 4.1 19:05:28 10° SSE 19:10:49 83° ENE 19:16:13 10° NNW
USA 276 4.2 19:08:16 10° NW 19:10:56 24° N 19:13:36 10° ENE
Cosmos 1818 4.1 19:07:20 10° NW 19:12:43 60° WSW 19:18:02 10° SSE
X-37B 0.9 19:11:54 10° W 19:15:04 64° N 19:18:09 10° E
Cosmos 2360 Rocket 4.4 19:15:03 10° NNE 19:16:28 11° NE 19:17:52 10° NE
ATLAS 5 CENTAUR R/B 3.8 19:12:24 10° NW 19:17:49 36° WSW 19:23:54 10° S
Cosmos 921 Rocket 4.1 19:14:45 10° N 19:18:22 27° ENE 19:20:55 16° ESE
Cosmos 1707 Rocket 3.5 19:16:18 10° N 19:20:40 74° E 19:24:58 10° SSE
USA 186 3.6 19:19:55 10° SSW 19:21:39 19° W 19:23:24 10° NW
Aureole 1 Rocket 4.4 19:15:03 10° S 19:21:56 70° ESE 19:30:14 10° NNE
H-2A R/B 4.5 19:18:49 10° NE 19:22:18 26° E 19:24:49 15° SE
OBJECT-B 0.7 19:20:15 10° SSE 19:23:32 84° E 19:26:51 10° N
Genesis I 3.1 19:20:52 10° NNW 19:24:46 79° NE 19:27:36 18° SE
Cosmos 1980 Rocket 2.2 19:20:55 10° NNW 19:26:36 69° ENE 19:31:16 15° SE
CZ-2C R/B 3.6 19:25:19 10° NNE 19:29:54 75° ESE 19:34:23 10° S
Intercosmos 25 3.3 19:27:25 10° NNW 19:31:08 65° W 19:34:16 10° S
Cosmos 1470 Rocket 4.1 19:28:14 13° SSE 19:31:48 38° E 19:35:52 10° NNE
Shenzhou-11 Module 3.8 19:30:46 10° WSW 19:31:57 13° SSW 19:32:35 12° S
Cosmos 1833 Rocket 3.8 19:30:21 10° SW 19:35:46 48° WNW 19:41:14 10° NNE
NOSS 3-2 (A) 3.2 19:30:20 10° SSW 19:35:54 72° ESE 19:42:16 10° NE
SJ-6B 4.3 19:32:37 10° SSW 19:36:22 36° W 19:40:05 10° NNW
Cosmos 1184 Rocket 2.8 19:33:24 11° S 19:36:27 58° E 19:39:42 10° NNE
Sich 1 3.9 19:33:49 10° SSW 19:38:09 53° W 19:42:31 10° N
Meteor 1-4 Rocket 2.3 19:35:33 10° N 19:39:02 86° E 19:41:27 18° S
Cosmos 1697 Rocket 3.4 19:34:23 10° NW 19:39:49 51° WSW 19:45:13 10° S
H-2A R/B 4.5 19:37:00 10° SW 19:40:42 20° W 19:44:21 10° NW
USA 267 3.4 19:34:25 10° ENE 19:40:44 49° SE 19:47:01 10° SSW
Meteor 2-20 Rocket 4.5 19:34:40 10° N 19:40:49 65° E 19:45:54 15° SSE
SPOT 5 4.4 19:40:40 14° E 19:42:05 16° ENE 19:44:47 10° NNE
Cosmos 405 Rocket 3.3 19:42:21 26° SE 19:43:33 33° E 19:46:56 10° NNE
NOSS 3-2 (C) 3.4 19:39:51 10° SSW 19:45:16 52° ESE 19:51:22 10° NE
SPOT 1/Viking Rocket 4.3 19:45:04 22° ESE 19:47:46 37° ENE 19:52:33 10° N
Cosmos 1862 Rocket 3.5 19:43:39 10° N 19:48:06 71° E 19:50:56 22° SSE
Cosmos 1934 Rocket 4.0 19:42:55 10° S 19:49:17 89° E 19:55:41 10° N
Cosmos 1437 Rocket 4.1 19:46:23 10° NNE 19:49:24 22° ENE 19:49:58 21° E
Landsat 7 4.2 19:48:45 25° SE 19:51:10 45° ENE 19:55:42 10° N
Resurs 01 Rocket 1.6 19:47:47 17° SSE 19:51:13 84° WSW 19:55:40 10° NNW
USA 32 4.0 19:47:42 13° S 19:52:14 63° E 19:57:24 10° NNE
Cosmos 1850 Rocket 4.4 19:50:20 16° SSE 19:54:16 42° ESE 19:59:13 10° NNE
NOSS 2 (A) 3.8 19:53:51 10° NW 19:56:22 79° NE 19:56:23 79° ENE
Cosmos 676 Rocket 4.3 19:52:09 10° SSW 19:57:27 72° WNW 20:02:48 10° NNE
ERS-1 Rocket 4.0 19:56:12 24° ESE 19:58:04 30° ENE 20:02:25 10° N
GP-B 3.0 19:57:53 10° N 20:02:20 75° E 20:04:54 25° S
Okean 1 3.6 20:01:13 10° N 20:05:11 48° ENE 20:06:08 39° ESE
Meteor 1-19 Rocket 4.4 20:00:48 10° N 20:06:04 50° ENE 20:08:21 31° SE
SPOT 3 Rocket 4.5 20:02:06 10° S 20:07:04 46° W 20:12:04 10° NNW
CARTOSAT-1 4.5 20:06:55 29° E 20:07:49 32° ENE 20:11:41 10° N
BREEZE-M DEB (TANK) 3.7 20:09:25 10° NW 20:11:23 21° N 20:11:50 20° NNE
Cosmos 1933 Rocket 3.4 20:10:13 28° S 20:12:29 74° E 20:16:56 10° NNE
Cosmos 468 Rocket 4.0 20:08:04 10° NNW 20:13:22 67° ENE 20:15:29 36° SE
USA 234 4.0 20:10:46 17° E 20:15:28 45° NNE 20:21:38 10° NW
ATLAS 3B R/B 3.2 20:14:38 31° SE 20:15:39 32° ESE 20:21:22 10° NE
SL-4 R/B 3.9 20:13:11 10° WNW 20:16:33 26° NNW 20:19:43 10° NE
IGS 5A 3.3 20:15:47 42° SSE 20:17:08 84° ENE 20:21:18 10° N
Meteor 2-4 Rocket 4.2 20:17:35 10° N 20:22:55 42° ENE 20:24:18 36° ESE
Cosmos 1869 Rocket 4.2 20:23:53 37° E 20:23:53 37° E 20:27:54 10° NNE
Iridium 4 Rocket 4.4 20:25:27 23° ENE 20:25:27 23° ENE 20:28:12 10° NNE
MetOp-B 4.4 20:22:38 25° S 20:25:48 65° WSW 20:31:10 10° NNW
Meteor 1-14 Rocket 4.2 20:23:18 27° S 20:26:33 71° E 20:32:30 10° NNE
Spot 2 Rocket 3.5 20:25:34 34° S 20:27:49 82° WSW 20:32:57 10° NNW
Cosmos 1741 Rocket 3.9 20:27:52 18° SSW 20:31:48 86° ESE 20:37:07 10° NNE
SL-16 R/B 2.2 20:26:47 10° NNW 20:32:28 69° ENE 20:34:14 44° SE
Cosmos 2219 Rocket 4.3 20:29:23 10° N 20:32:33 15° NE 20:35:05 12° ENE
USA 238 DEB 4.4 20:28:46 10° SW 20:35:15 55° NW 20:42:02 10° NNE
USA 238 4.3 20:28:53 10° SW 20:35:22 55° NW 20:42:09 10° NNE
Okean 1-7 2.9 20:31:16 10° N 20:35:35 71° E 20:35:59 65° ESE
Cosmos 1703 Rocket 3.4 20:32:19 10° N 20:36:40 82° E 20:37:16 65° SSE
ATLAS 5 CENTAUR R/B 3.7 20:35:52 10° N 20:38:26 24° NE 20:39:34 22° ENE
Cosmos 2082 Rocket 4.3 20:35:26 10° WSW 20:40:15 28° NW 20:45:05 10° N
Terra 2.2 20:40:06 44° E 20:40:35 45° ENE 20:45:07 10° N
Cosmos 1570 Rocket 4.2 20:36:25 10° NNW 20:41:41 56° ENE 20:42:42 48° ESE
Meteor 1-18 Rocket 4.3 20:36:16 10° NNW 20:41:50 74° W 20:44:01 38° S
Lacrosse 5 1.8 20:39:38 10° NW 20:44:44 80° SW 20:45:36 61° SSE
Cosmos 1238 Rocket 4.0 20:44:11 24° W 20:44:46 26° WNW 20:47:21 10° NNW
CENTAUR R/B 2.7 20:39:46 10° SW 20:45:38 70° NW 20:52:39 10° NE
Cosmos 2100 Rocket 3.9 20:45:27 45° SSE 20:47:16 66° E 20:53:22 10° NNE
USA 276 3.4 20:44:40 10° NW 20:47:07 39° NNW 20:47:07 39° NNW
Cosmos 2208 Rocket 4.2 20:45:17 10° NNW 20:50:27 55° ENE 20:51:06 51° E
Cosmos 1763 Rocket 3.7 20:45:49 10° NNW 20:51:07 67° WSW 20:52:27 48° SSW
Cosmos 2322 Rocket 2.1 20:45:31 10° NNW 20:51:15 79° ENE 20:52:30 56° SE
X-37B 2.3 20:48:37 10° WNW 20:50:24 31° WNW 20:50:24 31° WNW
Cosmos 2173 Rocket 3.9 20:52:59 49° SSE 20:54:37 70° E 21:00:43 10° NNE
Cosmos 2084 Rocket 4.3 20:53:41 10° SW 20:57:45 49° NW 21:01:56 10° NNE
Cosmos 1500 3.8 20:59:53 50° N 20:59:53 50° N 21:02:45 10° N
Cosmos 2237 4.4 20:53:27 10° NNW 20:59:05 56° ENE 20:59:59 50° E
Cosmos 2360 Rocket 2.5 20:56:18 10° NNW 21:01:51 53° ENE 21:02:39 49° E
Cosmos 1725 Rocket 4.3 21:04:43 47° ESE 21:05:09 47° E 21:11:10 10° NNE
Cosmos 44 3.2 21:01:19 10° NW 21:06:18 87° WSW 21:06:35 80° SSE
Cosmos 1980 Rocket 4.4 21:06:20 10° WNW 21:09:57 18° W 21:13:03 12° SW
Cosmos 1666 4.5 21:11:57 25° NNE 21:11:57 25° NNE 21:13:41 10° NNE
Cosmos 1459 Rocket 3.9 21:08:10 49° S 21:10:02 90° WNW 21:16:26 10° N
Cosmos 2016 Rocket 3.9 21:13:23 60° SE 21:14:16 68° E 21:20:36 10° NNE
SPOT 5 3.2 21:19:54 51° W 21:19:54 51° W 21:24:02 10° NNW
SL-27 R/B 4.5 21:20:03 25° WNW 21:20:03 25° WNW 21:22:41 10° N
COSMOS 2428 4.0 21:16:02 10° N 21:20:54 28° NE 21:21:52 26° ENE
Cosmos 2221 Rocket 4.0 21:17:48 10° N 21:21:32 58° NNE 21:21:32 58° NNE
Cosmos 2346 Rocket 4.3 21:16:36 10° N 21:22:39 74° E 21:23:12 69° ESE
USA 267 3.8 21:17:26 10° NE 21:23:48 57° NNW 21:30:10 10° WSW
Cosmos 967 Rocket 4.3 21:18:42 10° NW 21:25:05 82° WSW 21:25:52 69° S
Lacrosse 4 Rocket 3.4 21:29:56 21° NE 21:29:56 21° NE 21:31:26 10° NE
Cosmos 1864 Rocket 4.3 21:27:52 70° SE 21:28:19 73° E 21:34:33 10° NNE
Cosmos 540 Rocket 3.7 21:24:38 10° NNW 21:29:44 60° WSW 21:29:44 60° WSW
Cosmos 2237 Rocket 4.4 21:27:19 10° N 21:30:27 15° NE 21:32:28 13° ENE
ERS-1 Rocket 4.1 21:36:12 33° WSW 21:36:45 34° W 21:41:19 10° NNW
Cosmos 2061 Rocket 3.9 21:37:27 68° SSW 21:38:17 81° W 21:44:31 10° N
Cosmos 2333 Rocket 2.8 21:34:00 10° NNW 21:39:31 44° ENE 21:39:44 44° ENE
Meteor 1-11 Rocket 3.7 21:42:34 75° WSW 21:42:50 77° W 21:48:38 10° N
Cosmos 2233 Rocket 4.1 21:45:59 63° E 21:45:59 63° E 21:52:04 10° NNE
Cosmos 1802 Rocket 4.4 21:45:24 46° SW 21:47:01 59° WNW 21:53:17 10° N
Cosmos 841 Rocket 4.4 21:42:49 10° NW 21:47:34 40° W 21:47:34 40° W
Cosmos 1066 Rocket 4.2 21:42:30 10° N 21:47:48 75° NNE 21:47:48 75° NNE
SL-4 R/B 4.2 21:53:49 10° NW 21:55:57 22° NNW 21:55:57 22° NNW
USA 234 3.2 21:58:07 68° SSW 21:58:17 69° SW 22:04:49 10° NW
Thor Agena Rocket 4.3 21:54:37 10° NNE 21:58:13 43° NE 21:58:13 43° NE
ATLAS 3B R/B 3.2 22:01:44 22° WSW 22:05:59 54° NW 22:12:31 10° NNE
Meteor 1-23 Rocket 4.5 22:08:32 10° NNW 22:13:53 64° WNW 22:13:53 64° WNW
SL-16 R/B 4.1 22:12:18 10° WNW 22:15:56 18° W 22:16:06 18° W
Cosmos 2219 Rocket 2.4 22:11:48 10° NNW 22:16:46 66° N 22:16:46 66° N
Terra 3.8 22:19:00 20° W 22:19:00 20° W 22:22:03 10° NW
Cosmos 2322 4.2 22:18:57 10° NNW 22:23:34 55° WNW 22:23:34 55° WNW
Cosmos 839 Rocket 4.4 22:23:45 73° SSW 22:24:39 88° ESE 22:33:42 10° NNE
Lacrosse 5 4.4 22:24:30 10° W 22:24:47 11° W 22:24:47 11° W
Tsikada Rocket 4.5 22:22:07 10° NNW 22:28:10 49° W 22:28:15 49° W
MOS 1-B Rocket 4.3 22:24:18 10° N 22:29:43 51° WNW 22:29:54 51° WNW
Meteor 2-11 Rocket 4.5 22:32:28 74° NNW 22:32:28 74° NNW 22:38:04 10° N
ALOS 2 4.2 22:35:05 33° N 22:35:05 33° N 22:37:35 10° N
Cosmos 2322 Rocket 4.3 22:31:24 10° WNW 22:34:18 15° W 22:34:18 15° W
SL-16 R/B 4.2 22:40:31 10° N 22:44:38 20° NE 22:46:19 18° ENE
Cosmos 2360 Rocket 3.9 22:41:04 10° NW 22:44:24 22° W 22:44:24 22° W
Cosmos 2297 Rocket 3.4 23:02:01 34° ENE 23:02:01 34° ENE 23:05:29 10° NE
COSMOS 2428 3.7 22:59:54 10° NW 23:03:51 40° WNW 23:03:51 40° WNW
Lacrosse 4 Rocket 4.0 23:06:11 16° NW 23:06:20 16° NW 23:09:00 10° N
Cosmos 1980 4.2 23:01:32 10° NNW 23:06:08 56° N 23:06:08 56° N
Cosmos 2219 4.0 23:13:12 45° NE 23:13:12 45° NE 23:17:07 10° NNE
Cosmos 2237 Rocket 2.7 23:09:50 10° NNW 23:14:16 55° N 23:14:16 55° N
Cosmos 2333 Rocket 3.8 23:18:40 10° NW 23:21:43 24° WNW 23:21:43 24° WNW
Timation 2 Rocket 4.2 23:26:06 63° NNW 23:26:06 63° NNW 23:31:32 10° NNE
Cosmos 1634 Rocket 4.5 23:35:14 51° ENE 23:35:14 51° ENE 23:40:40 10° NNE
CZ-2D R/B 4.0 23:44:34 10° NE 23:48:16 21° E 23:48:16 21° E
Cosmos 2227 Rocket 2.6 23:51:25 59° N 23:51:25 59° N 23:56:02 10° NNE
Nadezhda 4 Rocket 4.5 23:46:48 10° NNW 23:52:00 50° WNW 23:52:00 50° WNW
SJ 16-02 3.3 23:55:07 26° NE 23:55:07 26° NE 23:57:15 10° NNE
